Burlata, Spain
Current Conditions -  °F | °C
As of 8:00 PM on Tuesday 21 Oct 2014 (Local Time) from LEPP Reporting Station
Few Clouds Few Clouds  
Wind Chill: 64°   Ceiling: Unl
Heat Index: 64°   Visibility: 6mi
Dew Point: 57°   Wind: 17mph
Humidity: 77%   Direction: 350°N
Pressure: 30.33"   Gusts: NA
Location:  42.83°N, 1.62°W
Report Text: LEPP 211800Z 35015KT 320V020 9999 FEW030 18/14 Q1027
Loading
Personal Weather Stations






























Interactive Weather Map
Tropical Storm Tracking
New forecast layout! Learn more

10-Day Weather Forecast

Advertisements
Track Severe Weather on mobile